[[{"header":{"parameterUnit":"m.s-1","parameterCategory":2,"la1":30.2991,"la2":30.254,"lo1":-89.0895,"lo2":-89.0444,"dy":0.0017,"dx":0.0017,"nx":28,"ny":28,"refTime":"2025-11-20T03:00:00:Z","depth":"0","parameterNumber":2,"parameterNumberName":"U-component_of_CURRENTS"},"data":[0,0,0,0,0,0,0,0,0,0,0,0,0,0,0,0,0,0,0,0,0,0,0,0,0,0,0,0,0,0,0,0,0,0,0,0,0,0,0,0,0,0,0,0,0,0,0,0,0,0,0,0,0,0,0,0,0,0,0.1858,0.1858,0,0.19,0.19,0.1901,0.1915,0.1915,0.1915,0.1915,0.191,0.1909,0.1909,0,0,0,0,0,0,0,0,0,0,0,0,0,0.1786,0.1787,0.1858,0.1858,0.1859,0.19,0.19,0.1901,0.1915,0.1915,0.1915,0.1915,0.191,0.1909,0.1909,0,0,0,0,0,0,0,0,0,0,0,0,0,0.1821,0.1788,0.1857,0.1872,0.1873,0.19,0.19,0.1901,0.1915,0.1915,0.1915,0.1915,0.191,0.1909,0.1909,0.1911,0,0,0.1909,0.1909,0,0,0,0,0,0,0,0,0.1819,0.1823,0.1869,0.1871,0.1873,0.1903,0.1873,0.1902,0.1915,0.1898,0.1915,0.1915,0.1904,0.1904,0.1911,0.1911,0.191,0.1909,0.1909,0.1909,0.1909,0,0,0,0,0,0,0,0.1816,0.1822,0.1873,0.187,0.1872,0.1875,0.188,0.1879,0.1899,0.19,0.1901,0.1907,0.1904,0.1912,0.1911,0.191,0.1909,0.1909,0.1909,0.1909,0.1941,0.1942,0,0,0,0,0,0,0.1814,0.1819,0.1872,0.1875,0.1846,0.1876,0.1882,0.1893,0.19,0.1902,0.1908,0.1908,0.1912,0.1911,0.1911,0.1934,0.1909,0.1909,0.1909,0.194,0.1941,0.1942,0,0,0,0,0,0,0.1812,0.1818,0.187,0.1848,0.1855,0.1878,0.189,0.1893,0.1904,0.1907,0.1908,0.1915,0.1912,0.1911,0.1922,0.1933,0.1909,0.1909,0.1939,0.1941,0.1942,0.1967,0,0,0,0,0,0,0.181,0.1818,0.1822,0.1848,0.1857,0.189,0.189,0.1894,0.1909,0.191,0.1914,0.1913,0.1912,0.1922,0.1922,0.1933,0.1909,0.1938,0.194,0.1941,0.1965,0.1969,0.1973,0,0,0,0,0,0.1807,0.1814,0.1822,0.1828,0.1863,0.1891,0.1895,0.191,0.1909,0.1918,0.1924,0.1913,0.1933,0.1923,0.1922,0.1933,0.1937,0.1939,0.1941,0.1964,0.1969,0.1973,0,0,0,0,0,0,0.1782,0.1817,0.1826,0.1842,0.1867,0.1894,0.1901,0.1912,0.1924,0.1923,0.1923,0.1923,0.194,0.1934,0.1922,0.195,0.1934,0.1936,0.1951,0.1956,0.196,0.1962,0.1908,0,0,0,0,0,0.178,0.1797,0.1829,0.1842,0.1854,0.1877,0.1889,0.1903,0.1919,0.1924,0.1928,0.1934,0.1948,0.1949,0.1957,0.1966,0.2,0.1975,0.1979,0.1982,0.1984,0.2037,0.2046,0.1949,0.1949,0.1949,0,0,0.1772,0.1795,0.1802,0.1838,0.1855,0.1878,0.1884,0.1906,0.1924,0.192,0.1938,0.1947,0.1955,0.1973,0.1979,0.1967,0.2037,0.1984,0.1987,0.1988,0.2041,0.205,0.2059,0.1951,0.195,0.195,0,0,0.1769,0.1787,0.1802,0.1825,0.1859,0.1877,0.1884,0.1914,0.1926,0.1947,0.1955,0.1973,0.1982,0.1998,0.2005,0.2033,0.2059,0.2034,0.2049,0.2101,0.2109,0.2117,0.2216,0.2232,0.2031,0.2031,0.2031,0,0.1758,0.1786,0.1809,0.1833,0.1852,0.1876,0.1898,0.1917,0.1946,0.196,0.1954,0.1995,0.1997,0.2032,0.2043,0.2042,0.2091,0.2029,0.2106,0.2114,0.2122,0.222,0.2238,0.2033,0.2033,0.2033,0.2032,0,0.1772,0.1794,0.1805,0.1845,0.1867,0.189,0.1922,0.1942,0.1956,0.1977,0.2013,0.2027,0.2052,0.2057,0.2056,0.2109,0.2138,0.2109,0.2094,0.2133,0.2235,0.2253,0.2035,0.2034,0.2034,0.2034,0,0,0.1747,0.1803,0.1808,0.183,0.1877,0.1897,0.1929,0.1969,0.1999,0.2018,0.2064,0.2079,0.2091,0.2102,0.211,0.2146,0.2251,0.2148,0.215,0.2247,0.2412,0.2448,0.2471,0.2235,0.2237,0.2239,0.2478,0,0.1752,0.1795,0.1823,0.186,0.1885,0.1919,0.195,0.1988,0.2023,0.2073,0.2095,0.2139,0.2108,0.2135,0.2164,0.2236,0.2292,0.2192,0.2358,0.2364,0.2391,0.249,0.2439,0.2647,0.2495,0.2498,0.25,0,0.1758,0.1789,0.1824,0.1878,0.1891,0.1912,0.1973,0.2008,0.2079,0.2111,0.2154,0.2185,0.2256,0.2217,0.2355,0.2296,0.2355,0.2401,0.241,0.2442,0.2432,0.2575,0.2685,0.2612,0.2528,0.2526,0.2524,0,0.1734,0.1789,0.1815,0.1834,0.1896,0.1913,0.1946,0.2012,0.2063,0.2147,0.2214,0.2271,0.2357,0.2402,0.2502,0.2439,0.2673,0.2597,0.2692,0.2698,0.2685,0.2685,0.2738,0.2693,0.2692,0.2691,0.2691,0,0.1732,0.1754,0.1803,0.1819,0.1852,0.1899,0.1954,0.1997,0.2093,0.2169,0.2234,0.2326,0.2407,0.2542,0.2569,0.2726,0.2737,0.2734,0.2764,0.2698,0.2696,0.2653,0.2599,0.27,0.2698,0.2697,0.2695,0,0.1701,0.1738,0.1767,0.1822,0.1841,0.1861,0.1956,0.2,0.2107,0.2221,0.2261,0.2429,0.2602,0.2708,0.2852,0.2865,0.2903,0.3008,0.2956,0.2973,0.2934,0.2884,0.2879,0.2782,0.3143,0.3145,0.3147,0,0.1688,0.1701,0.1753,0.1769,0.1791,0.1842,0.1877,0.1981,0.2043,0.2272,0.2326,0.256,0.2698,0.2976,0.3052,0.3181,0.3026,0.3198,0.3035,0.2965,0.2931,0.2765,0.2668,0.3059,0.306,0.3061,0.3062,0,0.1659,0.1673,0.1698,0.1733,0.1761,0.1813,0.1879,0.1935,0.2077,0.2209,0.2396,0.2539,0.2846,0.2987,0.3202,0.3236,0.3046,0.3219,0.3147,0.2885,0.2707,0.2616,0.2901,0.307,0.3069,0.3068,0.3068,0.3068,0.1626,0.1632,0.1664,0.1697,0.1727,0.177,0.1794,0.1895,0.2013,0.219,0.2365,0.2569,0.2867,0.3156,0.3185,0.323,0.312,0.3143,0.3106,0.2957,0.2789,0.312,0.3301,0.3301,0.3302,0.3302,0.3302,0,0.1586,0.1607,0.1632,0.1661,0.167,0.1713,0.1781,0.1802,0.1906,0.212,0.2288,0.2616,0.2837,0.3025,0.3206,0.3133,0.2938,0.3054,0.2786,0.2703,0.3032,0.295,0.3061,0.3061,0.3061,0.3061,0.3061,0.3061,0.1568,0.1579,0.1601,0.1604,0.1618,0.161,0.1632,0.1683,0.1805,0.2013,0.2205,0.2402,0.278,0.3097,0.3121,0.3038,0.2747,0.2691,0.2605,0.2831,0.2834,0.2836,0.2745,0.2811,0.2811,0.2162,0.2158,0.2154]},{"header":{"parameterUnit":"m.s-1","parameterCategory":2,"la1":30.2991,"la2":30.254,"lo1":-89.0895,"lo2":-89.0444,"dy":0.0017,"dx":0.0017,"nx":28,"ny":28,"refTime":"2025-11-20T03:00:00:Z","depth":"0","parameterNumber":3,"parameterNumberName":"V-component_of_CURRENTS"},"data":[0,0,0,0,0,0,0,0,0,0,0,0,0,0,0,0,0,0,0,0,0,0,0,0,0,0,0,0,0,0,0,0,0,0,0,0,0,0,0,0,0,0,0,0,0,0,0,0,0,0,0,0,0,0,0,0,0,0,0.007,0.0069,0,0.0011,0.001,0.0009,-0.0039,-0.0039,-0.0039,-0.004,-0.0135,-0.0137,-0.0139,0,0,0,0,0,0,0,0,0,0,0,0,0,0.0109,0.0109,0.007,0.0069,0.0069,0.0011,0.001,0.0009,-0.0038,-0.0039,-0.004,-0.004,-0.0134,-0.0136,-0.0139,0,0,0,0,0,0,0,0,0,0,0,0,0,0.0075,0.0109,0.007,0.0038,0.0035,0.0011,0.001,0.0009,-0.0038,-0.0039,-0.004,-0.004,-0.0133,-0.0136,-0.0139,-0.0145,0,0,-0.0149,-0.015,0,0,0,0,0,0,0,0,0.0077,0.0074,0.0044,0.004,0.0036,-0.0007,-0.0011,-0.0044,-0.0038,-0.0011,-0.004,-0.0041,-0.0094,-0.0101,-0.011,-0.0149,-0.0154,-0.0149,-0.0151,-0.0152,-0.0153,0,0,0,0,0,0,0,0.008,0.0076,0.0046,0.0043,0.0039,0.0016,0.001,-0.0017,-0.0049,-0.0013,-0.0017,-0.0023,-0.0097,-0.0107,-0.0113,-0.0155,-0.0149,-0.0152,-0.0154,-0.0155,-0.0209,-0.0209,0,0,0,0,0,0,0.009,0.0078,0.0048,0.0044,0.0056,0.0016,0.001,0.0007,-0.0048,-0.0057,-0.0022,-0.0025,-0.0101,-0.0109,-0.0117,-0.0131,-0.0152,-0.0155,-0.0157,-0.021,-0.0209,-0.0209,0,0,0,0,0,0,0.0091,0.0088,0.005,0.006,0.0054,0.0016,0.0014,0.0007,-0.0005,-0.0054,-0.0064,-0.0026,-0.0102,-0.0112,-0.0138,-0.0135,-0.0157,-0.016,-0.021,-0.021,-0.0209,-0.0157,0,0,0,0,0,0,0.0093,0.0089,0.0092,0.0061,0.0053,0.0042,0.0014,0.0006,-0.0007,-0.0011,-0.0061,-0.0071,-0.0104,-0.0133,-0.0141,-0.0139,-0.0162,-0.0211,-0.021,-0.0209,-0.0159,-0.0154,-0.015,0,0,0,0,0,0.0095,0.0102,0.0093,0.0089,0.0059,0.0043,0.0037,0.0007,-0.0007,-0.0007,-0.004,-0.0069,-0.0134,-0.0135,-0.0145,-0.0144,-0.0211,-0.021,-0.0209,-0.0161,-0.0155,-0.015,0,0,0,0,0,0,0.0121,0.0097,0.0086,0.0087,0.0069,0.0035,0.0032,0.0013,-0.0013,-0.0018,-0.0065,-0.0076,-0.0097,-0.0124,-0.0125,-0.0156,-0.0177,-0.0177,-0.0136,-0.0132,-0.0127,-0.0136,-0.0165,0,0,0,0,0,0.013,0.0129,0.0103,0.0104,0.0098,0.0067,0.0057,0.0039,0.0011,-0.0001,-0.0035,-0.007,-0.01,-0.0118,-0.0147,-0.0164,-0.0189,-0.0169,-0.0164,-0.016,-0.0173,-0.0212,-0.0212,-0.0205,-0.0205,-0.0205,0,0,0.014,0.0128,0.0126,0.011,0.0093,0.0085,0.0059,0.0049,0.0039,-0.0007,-0.0028,-0.0055,-0.01,-0.0119,-0.0131,-0.0143,-0.0167,-0.0159,-0.0156,-0.0171,-0.0211,-0.0212,-0.0213,-0.0205,-0.0205,-0.0205,0,0,0.0157,0.015,0.0153,0.0141,0.0122,0.0104,0.0104,0.0076,0.006,0.0042,0.0005,-0.0022,-0.0062,-0.0096,-0.0119,-0.0108,-0.0141,-0.011,-0.0101,-0.0136,-0.0138,-0.0139,-0.0136,-0.0138,-0.011,-0.011,-0.011,0,0.017,0.0168,0.0152,0.015,0.0142,0.0115,0.0114,0.0097,0.0063,0.005,0.0042,-0.0022,-0.0055,-0.0093,-0.0091,-0.0101,-0.0113,-0.0115,-0.0132,-0.0134,-0.0137,-0.0134,-0.0136,-0.0107,-0.0108,-0.0108,-0.0108,0,0.0184,0.0183,0.0186,0.0173,0.0164,0.0162,0.0136,0.0127,0.0109,0.0085,0.0054,0.0012,-0.0029,-0.0038,-0.0066,-0.0097,-0.0095,-0.0118,-0.0145,-0.0134,-0.0131,-0.0135,-0.0104,-0.0105,-0.0105,-0.0106,0,0,0.0208,0.0197,0.0198,0.0199,0.0177,0.0174,0.0159,0.0138,0.0139,0.0099,0.0093,0.0029,0.0009,-0.0019,-0.005,-0.0088,-0.0103,-0.0109,-0.0112,-0.0105,-0.0154,-0.012,-0.0121,-0.013,-0.0131,-0.0132,-0.0131,0,0.0224,0.0232,0.0216,0.0221,0.0225,0.0198,0.0192,0.0169,0.0155,0.0149,0.0091,0.008,0.0017,0.0017,-0.0039,-0.0074,-0.0117,-0.0099,-0.0167,-0.0168,-0.0141,-0.0126,-0.0142,-0.0141,-0.0135,-0.0135,-0.0136,0,0.024,0.0245,0.0256,0.0254,0.0253,0.025,0.0245,0.0241,0.0216,0.0209,0.0168,0.0138,0.0087,0.004,-0.0058,-0.0041,-0.0106,-0.0146,-0.0148,-0.0146,-0.0144,-0.0159,-0.0148,-0.0329,-0.0142,-0.0142,-0.0141,0,0.0272,0.0272,0.0285,0.0283,0.0276,0.0275,0.0273,0.0257,0.0285,0.026,0.0302,0.0197,0.0219,0.0083,0.0006,-0.003,-0.0081,-0.0138,-0.0178,-0.0174,-0.0218,-0.0216,-0.0397,-0.0237,-0.0237,-0.0237,-0.0237,0,0.0296,0.0307,0.0304,0.0314,0.0343,0.0318,0.0357,0.0342,0.0366,0.044,0.0348,0.0411,0.0232,0.0192,0.0046,-0.0044,-0.0052,-0.0175,-0.018,-0.0194,-0.019,-0.0374,-0.0469,-0.0237,-0.0237,-0.0237,-0.0237,0,0.0331,0.0326,0.0348,0.0351,0.0362,0.0386,0.0441,0.0483,0.0497,0.0602,0.0614,0.0596,0.0549,0.0379,0.022,0.0073,-0.0156,-0.0101,-0.0078,-0.0082,-0.0319,-0.0408,-0.0578,-0.0649,-0.0169,-0.0169,-0.0168,0,0.035,0.0366,0.0393,0.0429,0.0435,0.0479,0.0529,0.0546,0.0622,0.0743,0.082,0.0815,0.0848,0.0636,0.0346,0.0097,-0.0092,-0.0077,-0.0179,-0.0333,-0.0438,-0.051,-0.0564,-0.0202,-0.0201,-0.0201,-0.0201,0,0.0397,0.0405,0.0432,0.0512,0.0567,0.0645,0.0726,0.0813,0.0886,0.0996,0.1159,0.1197,0.1007,0.0776,0.0436,0.0227,-0.021,-0.0079,-0.0272,-0.0507,-0.0569,-0.0636,-0.0171,-0.0199,-0.0199,-0.0199,-0.02,-0.02,0.0444,0.0483,0.0537,0.0618,0.0692,0.0829,0.0937,0.1049,0.1215,0.1415,0.1421,0.1514,0.1138,0.067,0.0379,-0.0188,-0.0187,-0.0377,-0.0474,-0.0533,-0.0615,-0.0116,-0.013,-0.013,-0.013,-0.013,-0.013,0,0.0528,0.0579,0.0651,0.077,0.0891,0.0908,0.1092,0.1225,0.1459,0.1593,0.1728,0.1581,0.111,0.059,-0.0151,-0.0521,-0.0697,-0.0732,-0.089,-0.0928,-0.0521,-0.0538,-0.0601,-0.0601,-0.0601,-0.0601,-0.06,-0.06,0.0581,0.068,0.0726,0.0944,0.1037,0.1236,0.1364,0.1539,0.1667,0.1849,0.1879,0.1877,0.1458,0.0148,-0.0737,-0.094,-0.1222,-0.1264,-0.1375,-0.116,-0.1137,-0.1114,-0.1156,-0.1348,-0.1349,-0.1763,-0.1767,-0.177]}],[{"header":{"parameterUnit":"m.s-1","parameterCategory":2,"la1":30.2991,"la2":30.254,"lo1":-89.0895,"lo2":-89.0444,"dy":0.0017,"dx":0.0017,"nx":28,"ny":28,"refTime":"2025-11-20T03:00:00:Z","depth":"2","parameterNumber":2,"parameterNumberName":"U-component_of_CURRENTS"},"data":[0,0,0,0,0,0,0,0,0,0,0,0,0,0,0,0,0,0,0,0,0,0,0,0,0,0,0,0,0,0,0,0,0,0,0,0,0,0,0,0,0,0,0,0,0,0,0,0,0,0,0,0,0,0,0,0,0,0,0.1757,0.1758,0,0.179,0.179,0.1791,0.1805,0.1806,0.1806,0.1806,0.1829,0.1829,0.183,0,0,0,0,0,0,0,0,0,0,0,0,0,0.1696,0.1697,0.1757,0.1758,0.1758,0.179,0.179,0.1791,0.1805,0.1806,0.1806,0.1806,0.1829,0.1829,0.183,0,0,0,0,0,0,0,0,0,0,0,0,0,0.1724,0.1697,0.1757,0.177,0.1772,0.179,0.179,0.1791,0.1805,0.1806,0.1806,0.1806,0.1829,0.1829,0.183,0.1833,0,0,0.1833,0.1833,0,0,0,0,0,0,0,0,0.1722,0.1726,0.1768,0.177,0.1771,0.1795,0.1777,0.1805,0.1805,0.1791,0.1806,0.1806,0.1817,0.1819,0.1823,0.1834,0.1835,0.1833,0.1833,0.1834,0.1834,0,0,0,0,0,0,0,0.172,0.1724,0.1769,0.1769,0.1771,0.1771,0.1775,0.1782,0.1802,0.1793,0.1794,0.18,0.1818,0.1823,0.1824,0.1835,0.1833,0.1833,0.1834,0.1834,0.1889,0.189,0,0,0,0,0,0,0.1719,0.1723,0.1768,0.177,0.1748,0.1772,0.1776,0.1786,0.1802,0.1805,0.18,0.18,0.1821,0.1823,0.1825,0.1863,0.1834,0.1834,0.1835,0.1888,0.1889,0.189,0,0,0,0,0,0,0.1718,0.1723,0.1767,0.1748,0.1753,0.1773,0.1784,0.1787,0.1807,0.1808,0.1811,0.1818,0.1821,0.1824,0.1849,0.1863,0.1835,0.1835,0.1887,0.1889,0.189,0.1918,0,0,0,0,0,0,0.1716,0.1723,0.1733,0.1748,0.1755,0.1787,0.1784,0.1787,0.1809,0.1811,0.1824,0.1826,0.1822,0.1848,0.185,0.1863,0.1836,0.1886,0.1888,0.1889,0.1916,0.192,0.1924,0,0,0,0,0,0.1714,0.1723,0.1733,0.1739,0.1767,0.1787,0.1791,0.1804,0.181,0.1822,0.1835,0.1826,0.186,0.185,0.1851,0.1866,0.1885,0.1887,0.1889,0.1914,0.1919,0.1924,0,0,0,0,0,0,0.1699,0.1726,0.1738,0.1755,0.1776,0.1791,0.1799,0.1814,0.1834,0.1834,0.184,0.1843,0.1867,0.1867,0.1855,0.1888,0.1871,0.1873,0.1889,0.1894,0.1898,0.1904,0.1837,0,0,0,0,0,0.1702,0.1717,0.1743,0.1757,0.1768,0.1789,0.18,0.1811,0.1828,0.1837,0.1847,0.1859,0.1875,0.1886,0.1892,0.1914,0.1936,0.1925,0.1929,0.1932,0.194,0.1973,0.1981,0.1898,0.1897,0.1897,0,0,0.1698,0.1716,0.1724,0.1755,0.1769,0.179,0.1796,0.1814,0.1835,0.1836,0.1863,0.1871,0.1884,0.1905,0.1916,0.191,0.1975,0.1935,0.1938,0.1944,0.1976,0.1984,0.1991,0.1899,0.1899,0.1898,0,0,0.1697,0.1716,0.1731,0.1752,0.1781,0.1793,0.1804,0.1828,0.1843,0.1873,0.1878,0.1901,0.1922,0.1935,0.1946,0.1979,0.1992,0.198,0.2009,0.2041,0.2048,0.2054,0.2125,0.2137,0.1985,0.1985,0.1985,0,0.1693,0.172,0.1737,0.1761,0.1782,0.1799,0.1824,0.184,0.1869,0.1886,0.1884,0.1931,0.1937,0.1978,0.1989,0.1988,0.2021,0.1988,0.2046,0.2053,0.2059,0.2129,0.2142,0.1987,0.1986,0.1986,0.1986,0,0.1708,0.1734,0.1743,0.1781,0.1804,0.1825,0.1853,0.1872,0.1891,0.1911,0.1952,0.1967,0.1997,0.2003,0.2009,0.2056,0.2073,0.2044,0.2033,0.2069,0.2141,0.2154,0.1989,0.1988,0.1988,0.1987,0,0,0.1691,0.1745,0.175,0.1777,0.182,0.1838,0.187,0.1909,0.1939,0.1961,0.2008,0.2034,0.2044,0.2057,0.2067,0.2098,0.2178,0.2095,0.2096,0.2164,0.2286,0.2264,0.2276,0.2157,0.2158,0.216,0.2331,0,0.1703,0.1748,0.1775,0.1819,0.1846,0.1875,0.1908,0.1942,0.1973,0.2016,0.204,0.2083,0.2065,0.2091,0.2117,0.2165,0.2209,0.2137,0.2241,0.2246,0.2219,0.2289,0.2111,0.2245,0.2344,0.2346,0.2348,0,0.1714,0.1745,0.1789,0.1849,0.1864,0.1889,0.1948,0.1982,0.2037,0.2067,0.2106,0.2128,0.2193,0.2161,0.2265,0.2222,0.2258,0.2289,0.2295,0.227,0.2246,0.2218,0.2265,0.237,0.2368,0.2367,0.2365,0,0.1694,0.1757,0.1791,0.1812,0.1876,0.19,0.1937,0.1993,0.2039,0.2106,0.2163,0.2207,0.228,0.2303,0.2372,0.2325,0.2493,0.2431,0.2451,0.2452,0.2319,0.2305,0.2497,0.2497,0.2497,0.2496,0.2496,0,0.1696,0.1724,0.1784,0.1802,0.1847,0.1898,0.1953,0.1994,0.2075,0.2138,0.2192,0.2265,0.232,0.2412,0.2421,0.2505,0.2536,0.2483,0.2493,0.2328,0.2313,0.2418,0.2407,0.2503,0.2501,0.25,0.2499,0,0.1664,0.1704,0.1743,0.1811,0.1835,0.1865,0.1962,0.1997,0.2099,0.219,0.2224,0.2357,0.2475,0.2539,0.2629,0.2606,0.2653,0.2669,0.2497,0.2482,0.258,0.2569,0.2703,0.2704,0.2704,0.2705,0.2705,0,0.1653,0.1667,0.1734,0.1753,0.1782,0.1843,0.1877,0.1981,0.2034,0.2234,0.2276,0.245,0.2528,0.2691,0.2689,0.2735,0.2733,0.2591,0.2443,0.2605,0.2602,0.2589,0.2577,0.2303,0.23,0.2298,0.2296,0,0.1625,0.1641,0.1671,0.1713,0.1747,0.1796,0.1868,0.1918,0.2051,0.2155,0.2305,0.2394,0.2576,0.2554,0.2643,0.2617,0.2556,0.2542,0.2773,0.2266,0.2238,0.2231,0.223,0.2274,0.2276,0.2278,0.2279,0.228,0.1596,0.1604,0.164,0.1676,0.1713,0.1748,0.1773,0.1854,0.1945,0.2075,0.2215,0.2302,0.2385,0.2417,0.2381,0.2363,0.2503,0.2377,0.2381,0.2388,0.2298,0.227,0.23,0.2302,0.2304,0.2306,0.2307,0,0.1558,0.1579,0.1606,0.1644,0.1655,0.1702,0.1763,0.1768,0.1837,0.1952,0.2056,0.1975,0.2013,0.209,0.2045,0.2066,0.1994,0.1974,0.1859,0.1886,0.1908,0.1787,0.1657,0.1655,0.1652,0.165,0,0,0.1542,0.1549,0.1566,0.1581,0.161,0.1619,0.164,0.1644,0.1703,0.1707,0.1742,0.1909,0.2039,0.1807,0.1809,0.1727,0.1772,0.1661,0.2195,0.2088,0.2105,0.2172,0.2022,0,0,0,0,0]},{"header":{"parameterUnit":"m.s-1","parameterCategory":2,"la1":30.2991,"la2":30.254,"lo1":-89.0895,"lo2":-89.0444,"dy":0.0017,"dx":0.0017,"nx":28,"ny":28,"refTime":"2025-11-20T03:00:00:Z","depth":"2","parameterNumber":3,"parameterNumberName":"V-component_of_CURRENTS"},"data":[0,0,0,0,0,0,0,0,0,0,0,0,0,0,0,0,0,0,0,0,0,0,0,0,0,0,0,0,0,0,0,0,0,0,0,0,0,0,0,0,0,0,0,0,0,0,0,0,0,0,0,0,0,0,0,0,0,0,-0.0145,-0.0146,0,-0.0208,-0.0209,-0.021,-0.0253,-0.0253,-0.0253,-0.0254,-0.0345,-0.0348,-0.035,0,0,0,0,0,0,0,0,0,0,0,0,0,-0.0102,-0.0102,-0.0145,-0.0146,-0.0147,-0.0208,-0.0209,-0.021,-0.0253,-0.0253,-0.0253,-0.0254,-0.0345,-0.0347,-0.035,0,0,0,0,0,0,0,0,0,0,0,0,0,-0.0138,-0.0102,-0.0145,-0.0175,-0.0179,-0.0208,-0.0209,-0.021,-0.0253,-0.0253,-0.0253,-0.0254,-0.0344,-0.0347,-0.035,-0.0362,0,0,-0.036,-0.0362,0,0,0,0,0,0,0,0,-0.0136,-0.014,-0.017,-0.0173,-0.0177,-0.0223,-0.0227,-0.0262,-0.0252,-0.0225,-0.0254,-0.0254,-0.0307,-0.0313,-0.0324,-0.0366,-0.037,-0.0361,-0.0363,-0.0364,-0.0365,0,0,0,0,0,0,0,-0.0134,-0.0138,-0.017,-0.0171,-0.0175,-0.0199,-0.0204,-0.0234,-0.0263,-0.0227,-0.023,-0.0237,-0.0309,-0.0321,-0.0326,-0.0371,-0.036,-0.0363,-0.0365,-0.0367,-0.0437,-0.0436,0,0,0,0,0,0,-0.0123,-0.0135,-0.0168,-0.0172,-0.0157,-0.0199,-0.0205,-0.0208,-0.0262,-0.0271,-0.0236,-0.0239,-0.0315,-0.0323,-0.033,-0.0345,-0.0364,-0.0367,-0.0369,-0.0437,-0.0437,-0.0436,0,0,0,0,0,0,-0.0121,-0.0125,-0.0166,-0.0155,-0.0162,-0.0199,-0.0202,-0.0209,-0.022,-0.0269,-0.0278,-0.024,-0.0315,-0.0325,-0.0354,-0.0349,-0.0368,-0.0371,-0.0437,-0.0437,-0.0436,-0.0376,0,0,0,0,0,0,-0.012,-0.0124,-0.0121,-0.0154,-0.0162,-0.0177,-0.0202,-0.021,-0.0223,-0.0226,-0.0275,-0.0284,-0.0316,-0.0349,-0.0357,-0.0354,-0.0374,-0.0437,-0.0437,-0.0437,-0.0378,-0.0374,-0.037,0,0,0,0,0,-0.0118,-0.0111,-0.012,-0.0124,-0.0157,-0.0176,-0.0183,-0.0211,-0.0222,-0.0223,-0.0258,-0.0283,-0.0354,-0.0351,-0.0361,-0.0358,-0.0437,-0.0437,-0.0437,-0.038,-0.0375,-0.037,0,0,0,0,0,0,-0.0091,-0.0116,-0.0126,-0.0127,-0.0147,-0.0183,-0.0187,-0.0205,-0.0233,-0.0237,-0.0282,-0.0293,-0.0318,-0.0346,-0.0342,-0.0379,-0.0399,-0.0401,-0.0353,-0.0348,-0.0344,-0.0331,-0.0377,0,0,0,0,0,-0.0083,-0.0084,-0.0112,-0.0112,-0.0119,-0.0151,-0.0162,-0.018,-0.021,-0.0222,-0.0255,-0.0292,-0.0324,-0.0341,-0.0375,-0.0393,-0.0418,-0.0398,-0.0394,-0.039,-0.0386,-0.0419,-0.0417,-0.0436,-0.0436,-0.0436,0,0,-0.0073,-0.0086,-0.0087,-0.0106,-0.0124,-0.0128,-0.0159,-0.0171,-0.0176,-0.0228,-0.0244,-0.028,-0.0327,-0.0349,-0.0362,-0.0371,-0.0397,-0.039,-0.0386,-0.0384,-0.0419,-0.0417,-0.0415,-0.0436,-0.0436,-0.0436,0,0,-0.0052,-0.0064,-0.0057,-0.007,-0.009,-0.0109,-0.0109,-0.0141,-0.0155,-0.0175,-0.0215,-0.0245,-0.0291,-0.0323,-0.0345,-0.0338,-0.0375,-0.035,-0.0318,-0.035,-0.0348,-0.0347,-0.0369,-0.0371,-0.0347,-0.0346,-0.0346,0,-0.0039,-0.0035,-0.0059,-0.0055,-0.0061,-0.0096,-0.009,-0.0109,-0.0146,-0.0154,-0.0171,-0.0238,-0.0278,-0.0307,-0.0307,-0.0329,-0.035,-0.033,-0.0343,-0.0343,-0.0343,-0.0366,-0.0368,-0.0344,-0.0344,-0.0344,-0.0344,0,-0.0015,-0.0012,-0.0008,-0.0014,-0.0023,-0.0023,-0.005,-0.0059,-0.008,-0.0103,-0.0133,-0.0187,-0.0225,-0.0244,-0.0276,-0.0296,-0.0312,-0.0334,-0.0352,-0.0338,-0.0362,-0.0366,-0.0339,-0.034,-0.0341,-0.0342,0,0,0.0013,0.0011,0.0012,0.0018,0.0,-0.0004,-0.0007,-0.0021,-0.0015,-0.0059,-0.006,-0.0125,-0.0154,-0.0181,-0.0226,-0.0257,-0.0277,-0.0291,-0.0294,-0.0305,-0.0341,-0.0356,-0.0362,-0.0302,-0.0303,-0.0303,-0.0354,0,0.004,0.0062,0.0048,0.0066,0.0076,0.0049,0.0052,0.0034,0.0016,0.0008,-0.0051,-0.0073,-0.013,-0.0144,-0.0185,-0.0253,-0.0286,-0.0261,-0.036,-0.0362,-0.0372,-0.0366,-0.0339,-0.0383,-0.0358,-0.0359,-0.0359,0,0.0067,0.008,0.0106,0.0113,0.0115,0.0119,0.0122,0.0121,0.0098,0.0085,0.005,0.0005,-0.0049,-0.0095,-0.0203,-0.0185,-0.0257,-0.0312,-0.0316,-0.0354,-0.0385,-0.0397,-0.0391,-0.0366,-0.0365,-0.0365,-0.0364,0,0.0103,0.0118,0.0143,0.0144,0.0148,0.0155,0.0157,0.0146,0.0165,0.0137,0.0155,0.0068,0.005,-0.0062,-0.0178,-0.0193,-0.0289,-0.0326,-0.0408,-0.041,-0.0419,-0.0421,-0.0403,-0.0403,-0.0402,-0.0402,-0.0402,0,0.0136,0.0154,0.0163,0.0177,0.0214,0.0196,0.0236,0.0227,0.0238,0.028,0.0201,0.0217,0.0058,-0.0014,-0.0147,-0.0279,-0.0268,-0.04,-0.0426,-0.0397,-0.0396,-0.0409,-0.0409,-0.0404,-0.0404,-0.0403,-0.0403,0,0.0169,0.0174,0.0206,0.0221,0.0234,0.026,0.0304,0.0335,0.0338,0.0396,0.0395,0.0337,0.0236,0.0078,-0.0091,-0.0216,-0.0359,-0.041,-0.036,-0.0379,-0.0469,-0.0465,-0.0516,-0.0517,-0.0518,-0.0518,-0.0519,0,0.0188,0.0209,0.0248,0.028,0.029,0.0333,0.0372,0.0385,0.0437,0.0476,0.0516,0.0443,0.0395,0.0144,-0.009,-0.0321,-0.0349,-0.0443,-0.0479,-0.0461,-0.0481,-0.0476,-0.0471,-0.0465,-0.0465,-0.0465,-0.0465,0,0.0228,0.0239,0.0269,0.0339,0.0385,0.0447,0.0508,0.0569,0.0604,0.0648,0.0692,0.0652,0.0429,0.02,-0.0107,-0.0267,-0.0411,-0.0453,-0.0445,-0.0439,-0.0418,-0.0435,-0.0432,-0.0466,-0.0465,-0.0465,-0.0465,-0.0465,0.0259,0.0291,0.0336,0.0402,0.047,0.056,0.0618,0.0688,0.0772,0.0846,0.0811,0.0768,0.0512,0.012,-0.0142,-0.0408,-0.0418,-0.0516,-0.0514,-0.0513,-0.0497,-0.0478,-0.0534,-0.0534,-0.0534,-0.0534,-0.0535,0,0.0293,0.0335,0.04,0.0482,0.056,0.0595,0.0713,0.0761,0.0861,0.0926,0.0937,0.0712,0.0455,0.0184,-0.021,-0.0469,-0.0489,-0.054,-0.0503,-0.0502,-0.05,-0.0483,-0.0516,-0.0517,-0.0517,-0.0518,0,0,0.0315,0.0376,0.0409,0.0542,0.0616,0.0734,0.0807,0.0871,0.0935,0.0973,0.0973,0.0895,0.056,0.0285,-0.0062,-0.0276,-0.033,-0.0325,-0.0317,-0.0232,-0.0227,-0.0469,-0.0438,0,0,0,0,0]}],[{"header":{"parameterUnit":"m.s-1","parameterCategory":2,"la1":30.2991,"la2":30.254,"lo1":-89.0895,"lo2":-89.0444,"dy":0.0017,"dx":0.0017,"nx":28,"ny":28,"refTime":"2025-11-20T03:00:00:Z","depth":"4","parameterNumber":2,"parameterNumberName":"U-component_of_CURRENTS"},"data":[0,0,0,0,0,0,0,0,0,0,0,0,0,0,0,0,0,0,0,0,0,0,0,0,0,0,0,0,0,0,0,0,0,0,0,0,0,0,0,0,0,0,0,0,0,0,0,0,0,0,0,0,0,0,0,0,0,0,0.1055,0.1056,0,0.1102,0.1103,0.1103,0.1143,0.1144,0.1144,0.1145,0.12,0.1201,0.1202,0,0,0,0,0,0,0,0,0,0,0,0,0,0.0995,0.0995,0.1055,0.1056,0.1056,0.1102,0.1103,0.1103,0.1143,0.1144,0.1144,0.1145,0.12,0.1201,0.1202,0,0,0,0,0,0,0,0,0,0,0,0,0,0.1028,0.0996,0.1055,0.1083,0.1086,0.1102,0.1103,0.1103,0.1143,0.1144,0.1145,0.1145,0.1199,0.1201,0.1202,0.1193,0,0,0.1206,0.1207,0,0,0,0,0,0,0,0,0.1026,0.103,0.1078,0.1081,0.1085,0.1119,0.1102,0.1134,0.1143,0.112,0.1145,0.1146,0.1174,0.1178,0.1182,0.1196,0.1198,0.1207,0.1207,0.1208,0.1208,0,0,0,0,0,0,0,0.1023,0.1028,0.1072,0.1079,0.1083,0.1092,0.1097,0.1108,0.114,0.1122,0.1125,0.1133,0.1176,0.1181,0.1184,0.1199,0.1207,0.1208,0.1209,0.1209,0.1286,0.1287,0,0,0,0,0,0,0.102,0.1026,0.1071,0.1074,0.1059,0.1092,0.1099,0.1106,0.114,0.1147,0.1132,0.1134,0.1178,0.1182,0.1186,0.1254,0.1208,0.1209,0.121,0.1284,0.1286,0.1287,0,0,0,0,0,0,0.1019,0.1024,0.1069,0.1052,0.1059,0.1093,0.11,0.1106,0.1138,0.1148,0.1155,0.1161,0.1179,0.1184,0.1222,0.1254,0.121,0.1211,0.1283,0.1285,0.1286,0.1341,0,0,0,0,0,0,0.1017,0.1023,0.1038,0.1052,0.106,0.1096,0.11,0.1107,0.114,0.1145,0.1174,0.1179,0.118,0.122,0.1223,0.1255,0.1212,0.1281,0.1284,0.1286,0.1338,0.1344,0.135,0,0,0,0,0,0.1014,0.1028,0.1038,0.1045,0.1076,0.1097,0.1102,0.1128,0.1141,0.1159,0.1182,0.1179,0.1237,0.1222,0.1226,0.1258,0.128,0.1283,0.1286,0.1335,0.1343,0.135,0,0,0,0,0,0,0.1011,0.1034,0.1046,0.1067,0.109,0.1105,0.1127,0.1141,0.1173,0.1186,0.1193,0.12,0.1244,0.1242,0.1226,0.1286,0.1258,0.1262,0.1294,0.1302,0.1308,0.1305,0.1213,0,0,0,0,0,0.1016,0.1035,0.1055,0.1076,0.109,0.1113,0.113,0.1147,0.1171,0.1187,0.1208,0.1231,0.1252,0.1271,0.1285,0.1319,0.1324,0.1342,0.1348,0.1354,0.1354,0.1396,0.1406,0.1296,0.1296,0.1296,0,0,0.1019,0.1037,0.1047,0.1077,0.1098,0.112,0.1126,0.116,0.1185,0.1187,0.1236,0.1253,0.1265,0.1304,0.1324,0.1312,0.1389,0.1357,0.1362,0.1359,0.14,0.141,0.142,0.1298,0.1297,0.1297,0,0,0.1028,0.1054,0.1071,0.1092,0.113,0.1144,0.1159,0.1191,0.1217,0.1259,0.1269,0.1305,0.1339,0.1355,0.1366,0.1413,0.1418,0.1425,0.146,0.1501,0.1511,0.1519,0.1545,0.1555,0.1432,0.1432,0.1432,0,0.1034,0.1057,0.108,0.1103,0.1125,0.1157,0.118,0.1208,0.125,0.1278,0.1285,0.1351,0.1361,0.1409,0.1427,0.1428,0.145,0.1431,0.151,0.1518,0.1526,0.155,0.1561,0.1435,0.1435,0.1434,0.1434,0,0.1047,0.1077,0.1092,0.1129,0.1156,0.1184,0.1221,0.126,0.1296,0.1326,0.1391,0.1411,0.1453,0.1464,0.1461,0.1523,0.152,0.1511,0.1491,0.154,0.1563,0.1573,0.1439,0.1438,0.1437,0.1436,0,0,0.1026,0.1088,0.1095,0.1121,0.1174,0.1195,0.1247,0.1299,0.1346,0.1395,0.1456,0.1494,0.1521,0.1533,0.1544,0.1577,0.1647,0.1573,0.1574,0.1599,0.174,0.165,0.1652,0.1662,0.1664,0.1665,0.1736,0,0.1031,0.1072,0.1105,0.1153,0.1178,0.1228,0.1274,0.133,0.1386,0.1454,0.1496,0.1556,0.1544,0.158,0.1613,0.164,0.1675,0.1628,0.1688,0.1689,0.1603,0.1661,0.1672,0.1743,0.1746,0.1747,0.1749,0,0.1027,0.1059,0.1101,0.1172,0.119,0.1227,0.1313,0.136,0.1457,0.1506,0.1577,0.1617,0.1682,0.1662,0.174,0.1717,0.1734,0.1746,0.1749,0.165,0.1617,0.1683,0.1766,0.1765,0.1764,0.1762,0.1761,0,0.0988,0.1055,0.1091,0.1113,0.1195,0.1236,0.1288,0.1381,0.1439,0.155,0.161,0.1687,0.1742,0.1781,0.1815,0.1792,0.1892,0.1861,0.1793,0.1787,0.1822,0.1812,0.1914,0.1914,0.1914,0.1914,0.1914,0,0.0966,0.0999,0.1082,0.1101,0.116,0.1227,0.1306,0.1372,0.1481,0.1556,0.164,0.1706,0.1779,0.1843,0.1854,0.186,0.193,0.1807,0.1804,0.1843,0.1835,0.183,0.1819,0.1917,0.1916,0.1915,0.1915,0,0.0915,0.0967,0.1016,0.1108,0.1143,0.1187,0.131,0.137,0.1478,0.158,0.1623,0.1746,0.1825,0.1883,0.1952,0.1902,0.1919,0.1903,0.1953,0.195,0.1773,0.1765,0.1824,0.1821,0.1819,0.1817,0.1816,0,0.089,0.091,0.1009,0.1045,0.1092,0.1173,0.1234,0.1355,0.1419,0.1591,0.1631,0.1757,0.1825,0.1849,0.1911,0.1935,0.191,0.1901,0.1816,0.1775,0.1767,0.1761,0.1756,0.1813,0.1812,0.1812,0.1811,0,0.0841,0.0885,0.0926,0.1,0.1066,0.1136,0.1231,0.127,0.1414,0.1523,0.1607,0.1661,0.1749,0.1794,0.1834,0.1842,0.1894,0.1878,0.1881,0.18,0.1763,0.1755,0.1752,0.1804,0.1805,0.1805,0.1806,0,0.0809,0.0825,0.0887,0.0947,0.1024,0.108,0.1139,0.1221,0.1298,0.1476,0.1502,0.1633,0.1737,0.1749,0.1788,0.1793,0.1752,0.1678,0.1691,0.17,0.1626,0.1557,0.1542,0,0,0,0,0,0.0772,0.0788,0.0835,0.0896,0.097,0.1021,0.1131,0.1194,0.1327,0.1351,0.1423,0.15,0.1565,0.1631,0.1609,0.1731,0.1757,0.1698,0.1677,0.1763,0.1771,0.1695,0,0,0,0,0,0,0.0748,0.0784,0.0807,0.0842,0.0879,0.0957,0.1025,0.1118,0.1135,0.1269,0.131,0.1409,0.149,0.1561,0.158,0.1599,0.1556,0.1776,0.1773,0.1758,0.1766,0.1773,0.1697,0,0,0,0,0]},{"header":{"parameterUnit":"m.s-1","parameterCategory":2,"la1":30.2991,"la2":30.254,"lo1":-89.0895,"lo2":-89.0444,"dy":0.0017,"dx":0.0017,"nx":28,"ny":28,"refTime":"2025-11-20T03:00:00:Z","depth":"4","parameterNumber":3,"parameterNumberName":"V-component_of_CURRENTS"},"data":[0,0,0,0,0,0,0,0,0,0,0,0,0,0,0,0,0,0,0,0,0,0,0,0,0,0,0,0,0,0,0,0,0,0,0,0,0,0,0,0,0,0,0,0,0,0,0,0,0,0,0,0,0,0,0,0,0,0,-0.0082,-0.0082,0,-0.0129,-0.013,-0.013,-0.0161,-0.0161,-0.0161,-0.0161,-0.0237,-0.0238,-0.024,0,0,0,0,0,0,0,0,0,0,0,0,0,-0.005,-0.0051,-0.0081,-0.0082,-0.0083,-0.0129,-0.013,-0.013,-0.0161,-0.0161,-0.0161,-0.0161,-0.0236,-0.0238,-0.024,0,0,0,0,0,0,0,0,0,0,0,0,0,-0.0078,-0.0051,-0.0081,-0.0103,-0.0106,-0.0129,-0.013,-0.013,-0.0161,-0.0161,-0.0161,-0.0161,-0.0235,-0.0238,-0.0241,-0.0253,0,0,-0.0249,-0.025,0,0,0,0,0,0,0,0,-0.0076,-0.0079,-0.0099,-0.0102,-0.0104,-0.0139,-0.0146,-0.0173,-0.0161,-0.014,-0.0161,-0.0161,-0.0206,-0.0211,-0.022,-0.0257,-0.026,-0.0249,-0.0251,-0.0252,-0.0253,0,0,0,0,0,0,0,-0.0074,-0.0077,-0.0101,-0.01,-0.0103,-0.0122,-0.0126,-0.0151,-0.0172,-0.0142,-0.0144,-0.0149,-0.0208,-0.0217,-0.0222,-0.0261,-0.0249,-0.0252,-0.0254,-0.0255,-0.0333,-0.0333,0,0,0,0,0,0,-0.0066,-0.0075,-0.0099,-0.0102,-0.009,-0.0122,-0.0126,-0.0128,-0.0171,-0.0178,-0.0149,-0.015,-0.0212,-0.0218,-0.0225,-0.0244,-0.0252,-0.0255,-0.0256,-0.0332,-0.0333,-0.0333,0,0,0,0,0,0,-0.0065,-0.0067,-0.0097,-0.009,-0.0095,-0.0122,-0.0124,-0.0129,-0.0141,-0.0176,-0.0183,-0.0156,-0.0212,-0.0221,-0.0251,-0.0247,-0.0256,-0.0259,-0.0332,-0.0333,-0.0333,-0.0283,0,0,0,0,0,0,-0.0063,-0.0066,-0.0066,-0.0089,-0.0095,-0.0108,-0.0124,-0.0129,-0.0144,-0.0146,-0.0185,-0.0192,-0.0213,-0.0247,-0.0254,-0.0251,-0.0261,-0.0331,-0.0332,-0.0333,-0.0284,-0.0281,-0.0279,0,0,0,0,0,-0.0062,-0.0058,-0.0065,-0.0069,-0.0093,-0.0108,-0.0113,-0.0133,-0.0144,-0.0146,-0.0176,-0.0191,-0.0257,-0.025,-0.0258,-0.0256,-0.0331,-0.0332,-0.0333,-0.0285,-0.0282,-0.0279,0,0,0,0,0,0,-0.0046,-0.0062,-0.007,-0.0072,-0.0088,-0.0113,-0.0118,-0.0133,-0.0158,-0.0163,-0.0196,-0.0205,-0.0232,-0.0254,-0.0245,-0.0283,-0.0297,-0.0299,-0.0257,-0.0255,-0.0253,-0.0222,-0.0263,0,0,0,0,0,-0.0041,-0.0041,-0.0062,-0.0063,-0.0069,-0.0094,-0.0104,-0.0117,-0.0142,-0.0153,-0.0181,-0.0213,-0.0242,-0.0256,-0.0285,-0.0304,-0.0323,-0.031,-0.0308,-0.0305,-0.0288,-0.0316,-0.0314,-0.0336,-0.0336,-0.0336,0,0,-0.0036,-0.0044,-0.0045,-0.006,-0.0074,-0.0073,-0.0101,-0.0112,-0.0112,-0.0158,-0.0171,-0.0208,-0.0247,-0.0268,-0.0281,-0.0285,-0.0313,-0.0307,-0.0304,-0.0288,-0.0317,-0.0315,-0.0312,-0.0337,-0.0337,-0.0337,0,0,-0.0019,-0.0032,-0.0024,-0.0032,-0.0049,-0.0062,-0.0064,-0.009,-0.0102,-0.0123,-0.0156,-0.0187,-0.0231,-0.0252,-0.027,-0.0274,-0.0302,-0.0291,-0.0251,-0.0279,-0.0277,-0.0275,-0.0304,-0.0306,-0.0287,-0.0287,-0.0287,0,-0.0011,-0.0002,-0.0025,-0.0018,-0.0018,-0.0053,-0.0041,-0.0059,-0.0092,-0.0098,-0.0121,-0.0182,-0.0219,-0.0235,-0.0239,-0.0266,-0.0289,-0.0255,-0.0274,-0.0272,-0.0271,-0.0302,-0.0304,-0.0284,-0.0285,-0.0285,-0.0285,0,0.0014,0.0022,0.0025,0.0027,0.0022,0.0024,0.0003,-0.0008,-0.0031,-0.0051,-0.008,-0.0132,-0.0165,-0.0187,-0.0214,-0.0226,-0.0248,-0.0268,-0.0273,-0.0265,-0.0299,-0.0302,-0.0281,-0.0282,-0.0283,-0.0283,0,0,0.0033,0.0044,0.0045,0.0059,0.0048,0.0048,0.005,0.0044,0.0045,0.0003,0.0001,-0.0054,-0.0087,-0.0109,-0.0153,-0.0176,-0.02,-0.0214,-0.0216,-0.023,-0.0264,-0.0273,-0.0277,-0.0225,-0.0225,-0.0225,-0.0293,0,0.0062,0.0094,0.0089,0.0118,0.0133,0.0113,0.012,0.0107,0.0081,0.0066,0.0015,-0.0013,-0.0057,-0.0079,-0.0107,-0.0181,-0.0204,-0.0179,-0.028,-0.0283,-0.0281,-0.0279,-0.0225,-0.0295,-0.0296,-0.0296,-0.0297,0,0.009,0.011,0.0147,0.0172,0.0177,0.0186,0.0194,0.0194,0.0165,0.0144,0.0112,0.0063,0.0018,-0.0024,-0.012,-0.0104,-0.0171,-0.0226,-0.023,-0.0252,-0.0296,-0.0305,-0.0302,-0.0302,-0.0302,-0.0301,-0.0301,0,0.0117,0.015,0.0185,0.0192,0.0211,0.0224,0.023,0.0216,0.0219,0.0189,0.0176,0.0119,0.0074,-0.0001,-0.0123,-0.0122,-0.0233,-0.0251,-0.0317,-0.0319,-0.0312,-0.0313,-0.0304,-0.0304,-0.0304,-0.0304,-0.0303,0,0.0148,0.0174,0.02,0.0217,0.0257,0.0256,0.0284,0.0278,0.027,0.0274,0.0214,0.0192,0.0075,-0.0009,-0.0103,-0.0222,-0.0222,-0.0301,-0.0332,-0.0292,-0.0291,-0.0315,-0.0315,-0.0306,-0.0306,-0.0305,-0.0305,0,0.0164,0.0183,0.0222,0.0255,0.0269,0.0291,0.032,0.0334,0.0321,0.0323,0.0314,0.0236,0.0128,0.0006,-0.0135,-0.0206,-0.0314,-0.0357,-0.0306,-0.0336,-0.0382,-0.038,-0.042,-0.042,-0.0421,-0.0422,-0.0422,0,0.0174,0.0197,0.0245,0.027,0.0284,0.032,0.0345,0.0356,0.0369,0.0346,0.0345,0.0248,0.0182,-0.0014,-0.0147,-0.0318,-0.0345,-0.0398,-0.0377,-0.0365,-0.0392,-0.0388,-0.0385,-0.0423,-0.0423,-0.0423,-0.0424,0,0.0187,0.0202,0.0232,0.0283,0.0317,0.0362,0.0396,0.0414,0.0422,0.0414,0.0375,0.0274,0.0146,-0.0006,-0.0151,-0.0273,-0.0357,-0.0405,-0.0404,-0.0385,-0.037,-0.0395,-0.0391,-0.0426,-0.0425,-0.0425,-0.0425,0,0.0187,0.0205,0.024,0.0283,0.0333,0.038,0.0407,0.0426,0.0443,0.0427,0.0409,0.028,0.0205,0.0015,-0.0116,-0.024,-0.0263,-0.0291,-0.0296,-0.0296,-0.0242,-0.0204,-0.0227,0,0,0,0,0,0.0178,0.0193,0.0237,0.0283,0.0336,0.0365,0.0427,0.045,0.0466,0.0451,0.0437,0.0326,0.0135,0.0046,-0.0077,-0.014,-0.0298,-0.0289,-0.0336,-0.0438,-0.0436,-0.0395,0,0,0,0,0,0,0.0167,0.0201,0.0225,0.0272,0.0303,0.0362,0.0405,0.0427,0.0423,0.0425,0.0327,0.0288,0.01,0.0197,-0.0087,-0.0126,-0.0171,-0.0378,-0.0381,-0.044,-0.0437,-0.0435,-0.0393,0,0,0,0,0]}]]